DELTA 1 DEB

Satellite information

Favourite Embed

Satellite Type and Status

DEBRISIN ORBIT

Key statistics

Satellite DELTA 1 DEB at a glance.

Uptime

17524

Days in orbit

Revolutions

≈ 13.5

Per day

Orbit

LEO

Low Earth Orbit

Inclination

29.0

Latest

Satellite identification and parameters

Extended collection of information and parameters for DELTA 1 DEB.

Object identification

Identified? True

Debris? True

Object name: DELTA 1 DEB

International designator: 1977-065BE

Object number (NORAD): 10227

Object ID (CCSDS): 10227

Country: UNITED STATES OF AMERICA (US)

Current information (Y/N): Y

RCS size: MEDIUM

Orbital parameters

Period: 106.535 minutes

Inclination: 28.956 deg

SMA: 7444.276 km

Apoapsis: 1571.736 km

Periapsis: 560.546 km

RAAN: 304.5553 deg

Eccentricy: 0.0679173

Argument of periapsis: 245.036 deg

Mean anomaly: 107.817 deg

Mean motion: 13.51665034 rev/day

Mean motion (dot): 0.00002063 rev/day2

B* drag term: 0.00066138 1/REarth

Two-line elements (TLE)

Creation date: July 5, 2025, 5:45 p.m.

Reference frame: TEME

Reference center: EARTH

Epoch: July 5, 2025, 1:51 p.m. UTC

TLE line 0: 0 DELTA 1 DEB

TLE line 1: 1 10227U 77065BE 25186.57746385 .00002063 00000-0 66138-3 0 9992

TLE line 2: 2 10227 28.9560 304.5553 0679173 245.0360 107.8170 13.51665034327721

Live tracking on map

Real-time ground track for satellite DELTA 1 DEB.

In-orbit conjunctions

A list of the most updated potential collisions computed for object DELTA 1 DEB.

Target Orbit TCA Probability of collision Miss distance Type
BPA 1/SL-24 R/B SSO 2024-11-14 12:06:52 0.0002018417 538.0 (m) ROCKET BODY

Associated space launch

Japanese meteorological satellite built by Hughes Space and Communications Company

DELTA 1 DEB was lifted into orbit during the mission ‘Delta 2914 | Himawari’, on board a Delta 2914 space rocket.

The launch took place on July 14, 1977, 10:39 a.m. from Space Launch Complex 17B.

For more information about the launch, click the button.

Launch to space Delta 2914 | Himawari
Delta 2914 | Himawari

Agency: N/A

Status: Launch Successful

Launch date: July 14, 1977, 10:39 a.m. UTC

Rocket: Delta 2914

Launch pad: Space Launch Complex 17B

Location: Cape Canaveral SFS, FL, USA

...

Latest news about this satellite

There are no fresh news available about this satellite. Check back as we update our databases every day.


Newsletter sign-up

Weekly statistics, charts and insights to help you stay on top of the space industry.